DW9840 Weather Reports


Display with metric or nautical units.
time (UTC)temp
F
wind
direction
speed
MPH
gust
MPH
rain 1hr
in
rain 24hr
in
rain mn
in
humidity
%
barometer
mb
20260506221538 71 193 1.0 9.0 0.00 0.00 0.00 61 1018.2
20260506220020 72 151 0.0 8.0 0.00 0.00 0.00 61 1018.2
20260506214529 72 238 0.0 3.0 0.00 0.00 0.00 61 1018.3
20260506213014 72 160 1.0 10.0 0.00 0.00 0.00 60 1018.5
20260506211506 73 214 0.0 3.0 0.00 0.00 0.00 60 1018.5
20260506210003 73 200 0.0 4.0 0.00 0.00 0.00 61 1018.5
20260506204558 73 170 0.0 3.0 0.00 0.00 0.00 60 1018.6
20260506203053 73 255 0.0 1.0 0.00 0.00 0.00 60 1018.8
20260506201548 72 210 0.0 4.0 0.00 0.00 0.00 60 1018.8
20260506200026 73 217 0.0 4.0 0.00 0.00 0.00 60 1019.0
20260506194522 72 187 0.0 0.0 0.00 0.00 0.00 60 1019.1
20260506193100 73 163 0.0 1.0 0.00 0.00 0.00 60 1019.2
20260506191555 74 230 0.0 1.0 0.00 0.00 0.00 59 1019.4
20260506190034 72 277 0.0 0.0 0.00 0.00 0.00 60 1019.4
20260506184542 70 173 0.0 0.0 0.00 0.00 0.00 60 1019.5
20260506183015 71 188 0.0 0.0 0.00 0.00 0.00 60 1019.6
20260506181507 71 204 0.0 0.0 0.00 0.00 0.00 59 1019.6
20260506180043 70 124 0.0 0.0 0.00 0.00 0.00 59 1019.6
20260506174541 70 231 0.0 0.0 0.00 0.00 0.00 59 1019.6
20260506173022 68 127 0.0 0.0 0.00 0.00 0.00 60 1019.6
20260506171517 69 230 0.0 0.0 0.00 0.00 0.00 59 1019.7
20260506170012 68 316 0.0 0.0 0.00 0.00 0.00 57 1019.8
20260506164509 67 269 0.0 0.0 0.00 0.00 0.00 57 1019.8
20260506163003 66 269 0.0 0.0 0.00 0.00 0.00 54 1019.8
20260506161559 66 221 0.0 1.0 0.00 0.00 0.00 36 1019.8
20260506154550 64 265 0.0 0.0 0.00 0.00 0.00 17 1019.9
20260506153028 65 186 0.0 0.0 0.00 0.00 0.00 3 1019.8
20260506151524 64 186 0.0 0.0 0.00 0.00 0.00 3 1019.8
20260506150002 62 186 0.0 0.0 0.00 0.00 0.00 3 1019.8
20260506144604 61 186 0.0 0.0 0.00 0.00 0.00 3 1019.7
20260506143037 60 186 0.0 0.0 0.00 0.00 0.00 3 1019.7
20260506141532 60 186 0.0 0.0 0.00 0.00 0.00 3 1019.6
20260506140015 0 0.0 0.0 0.00 0.00 0.00 1019.4
20260506134507 0 0.0 0.0 0.00 0.00 0.00 1019.3
20260506133102 0 0.0 0.0 0.00 0.00 0.00 1019.3
20260506131546 0 0.0 0.0 0.00 0.00 0.00 1019.2
20260506130036 0 0.0 0.0 0.00 0.00 0.00 1019.1
20260506124514 0 0.0 0.0 0.00 0.00 0.00 1019.0
20260506123010 0 0.0 0.0 0.00 0.00 0.00 1019.0
20260506121556 0 0.0 0.0 0.00 0.00 0.00 1018.9
20260506120050 0 0.0 0.0 0.00 0.00 0.00 1018.9
20260506114545 58 211 0.0 0.0 0.00 0.00 0.00 3 1018.8
20260506113043 60 226 0.0 0.0 0.00 0.00 0.00 3 1018.7
20260506111536 60 214 0.0 0.0 0.00 0.00 0.00 3 1018.6
20260506110033 60 221 0.0 0.0 0.00 0.00 0.00 3 1018.5
20260506104533 60 201 0.0 0.0 0.00 0.00 0.00 3 1018.4
20260506103026 60 217 0.0 0.0 0.00 0.00 0.00 3 1018.3
20260506101501 60 217 0.0 0.0 0.00 0.00 0.00 3 1018.2
20260506100057 60 219 0.0 0.0 0.00 0.00 0.00 3 1018.2
20260506094539 60 136 0.0 0.0 0.00 0.00 0.00 3 1018.1
20260506093032 61 158 0.0 0.0 0.00 0.00 0.00 3 1018.1
20260506091510 60 203 0.0 0.0 0.00 0.00 0.00 3 1018.2
20260506090006 60 203 0.0 0.0 0.00 0.00 0.00 3 1018.2
20260506084548 60 203 0.0 0.0 0.00 0.01 0.00 3 1018.2
20260506083040 60 222 0.0 0.0 0.00 0.01 0.00 3 1018.3
20260506081520 60 203 0.0 0.0 0.00 0.01 0.00 3 1018.2
20260506073047 61 203 0.0 0.0 0.00 0.02 0.00 3 1017.9
20260506071526 61 178 0.0 0.0 0.00 0.02 0.00 3 1017.8
20260506061532 61 127 0.0 0.0 0.00 0.16 0.02 3 1017.4
20260506044522 61 136 0.0 1.0 0.00 0.20 0.02 3 1016.7
20260506043015 61 135 0.0 3.0 0.00 0.20 0.02 3 1016.5
20260506041510 62 203 0.0 2.0 0.00 0.20 0.02 3 1016.3
20260506040007 61 211 0.0 5.0 0.00 0.20 0.02 3 1016.2
20260506034505 61 121 0.0 1.0 0.00 0.23 0.02 3 1016.1
20260506033058 61 217 0.0 3.0 0.00 0.23 0.02 9 1015.9
20260506031606 61 179 0.0 0.0 0.00 0.23 0.02 17 1015.4
20260506030048 60 194 0.0 2.0 0.00 0.23 0.02 26 1015.2
20260506024552 60 212 0.0 6.0 0.00 0.30 0.02 34 1015.2
20260506023022 60 153 0.0 1.0 0.00 0.30 0.02 42 1015.1
20260506021600 61 215 0.0 3.0 0.00 0.30 0.02 51 1015.0
20260506021501 61 195 0.0 3.0 0.00 0.30 0.02 52 1015.0
20260506020059 61 165 0.0 1.0 0.00 0.30 0.02 58 1014.8
20260506014536 62 208 0.0 2.0 0.00 0.36 0.02 61 1014.7
20260506013040 63 233 0.0 2.0 0.00 0.36 0.02 60 1014.7
20260506011510 63 224 0.0 2.0 0.00 0.36 0.02 58 1014.4
20260506010009 63 205 0.0 4.0 0.00 0.36 0.02 59 1014.5
20260506004542 63 215 0.0 5.0 0.00 0.44 0.02 60 1014.5
20260506003039 63 224 0.0 4.0 0.00 0.44 0.02 60 1014.4
20260506001517 63 180 0.0 4.0 0.00 0.44 0.02 60 1014.3
20260506000011 63 233 0.0 5.0 0.00 0.44 0.02 59 1014.2
20260505234549 64 214 0.0 7.0 0.00 0.48 0.02 60 1014.3
20260505233044 64 158 0.0 6.0 0.00 0.48 0.02 60 1014.2
20260505231522 65 162 0.0 1.0 0.00 0.48 0.02 61 1014.3
20260505230034 65 233 0.0 10.0 0.00 0.48 0.02 61 1014.2
20260505224556 65 134 0.0 4.0 0.00 0.50 0.02 61 1014.2
20260505223106 66 181 0.0 0.0 0.00 0.50 0.02 61 1014.2